Location: Unspecified
(64.9000°N, 0.0000°E)
Time: 13:07:44
(UTC+00:00)

Altair - Pass Details

Date: 24 June 2019
Orbit: 1501 x 1683 km, 47.2° (Epoch: 17 July)

Event Time Altitude Azimuth Distance (km) Brightness Sun altitude
Rises 23:47:17 0° 262° (W) 4,794 10.0 -1.6°
Reaches altitude 10° 23:51:09 10° 249° (WSW) 3,837 9.4 -1.7°
Maximum altitude 23:58:13 23° 202° (SSW) 2,965 8.5 -1.7°
Drops below altitude 10° 00:05:27 10° 155° (SSE) 3,921 9.1 -1.7°
Sets 00:09:27 0° 143° (SE) 4,922 9.7 -1.7°
